contact:dominique.lefevre@mio.osupytheas.fr, maurice.libes@osupytheas.fr, didier.mallarino@osupytheas.fr
Project:EMSO http://www.emso-fr.org/EMSO-France
Depth: 2436.0 m
Title:EMSO Ligure Ouest : Data MII capteur AQUADOPP
Date,Latitude,Longitude,X_East,Y_North,Z_Up,Amplitude_X,Amplitude_Y,Amplitude_Z,Batterie,SoundSpeed,Heading,Pitch,Roll,Pressure,TIS,Speed,Direction
, degrees North, degrees East, m.s-1, m.s-1,m.s-1, 1, 1, 1, Volt, m.s-1, degree, degree, degree, dbar, degree_C, m.s-1, degree
2023-04-26T00:04:03,42.805,6.029,-0.008,-0.078,-0.029,104.0,104.0,102.0,13.3,1505.2,336.5,-0.7,1.8,2471.447,13.28,0.078,185.9
2023-04-26T00:07:03,42.805,6.029,0.022,-0.052,-0.059,105.0,103.0,103.0,13.4,1505.2,316.8,-0.8,1.8,2471.474,13.28,0.056,157.1
2023-04-26T00:10:03,42.805,6.029,-0.011,-0.045,-0.033,104.0,104.0,102.0,13.3,1505.2,337.5,-0.8,1.8,2471.496,13.28,0.046,193.7
2023-04-26T00:13:03,42.805,6.029,0.034,-0.05,-0.046,103.0,105.0,103.0,13.3,1505.2,317.0,-0.8,1.8,2471.464,13.29,0.06,145.8
2023-04-26T00:16:03,42.805,6.029,-0.003,-0.06,-0.026,105.0,103.0,102.0,13.4,1505.2,326.3,-0.8,1.8,2471.432,13.29,0.06,182.9
2023-04-26T00:19:03,42.805,6.029,0.026,-0.067,-0.042,105.0,103.0,103.0,13.3,1505.2,318.6,-0.7,1.8,2471.437,13.29,0.071,158.8
2023-04-26T00:22:03,42.805,6.029,0.008,-0.074,-0.053,106.0,104.0,102.0,13.3,1505.2,334.3,-0.8,1.8,2471.422,13.29,0.074,173.8
2023-04-26T00:25:03,42.805,6.029,0.045,-0.095,-0.051,104.0,104.0,103.0,13.4,1505.2,316.8,-0.8,1.9,2471.384,13.29,0.105,154.7
2023-04-26T00:28:03,42.805,6.029,0.0,-0.087,-0.024,105.0,104.0,103.0,13.4,1505.2,332.9,-0.8,1.8,2471.444,13.29,0.086,180.0
2023-04-26T00:31:03,42.805,6.029,0.011,-0.051,-0.043,104.0,104.0,102.0,13.4,1505.2,333.4,-0.8,1.8,2471.454,13.29,0.052,167.8
2023-04-26T00:34:03,42.805,6.029,0.032,-0.052,-0.038,104.0,103.0,104.0,13.4,1505.2,316.2,-0.7,1.8,2471.441,13.29,0.061,148.4
2023-04-26T00:37:03,42.805,6.029,0.001,-0.074,-0.049,104.0,103.0,104.0,13.4,1505.2,325.0,-0.8,1.8,2471.435,13.29,0.074,179.2
2023-04-26T00:40:03,42.805,6.029,0.004,-0.063,-0.051,104.0,104.0,102.0,13.4,1505.2,332.5,-0.7,1.9,2471.458,13.29,0.063,176.4
2023-04-26T00:43:03,42.805,6.029,0.026,-0.055,-0.032,104.0,104.0,104.0,13.4,1505.2,323.1,-0.8,1.8,2471.457,13.29,0.06,154.7
2023-04-26T00:46:03,42.805,6.029,0.015,-0.078,-0.075,105.0,103.0,102.0,13.4,1505.2,340.1,-0.7,1.8,2471.398,13.29,0.079,169.1
2023-04-26T00:49:03,42.805,6.029,0.014,-0.034,-0.008,104.0,103.0,103.0,13.4,1505.2,318.0,-0.7,1.9,2471.44,13.29,0.036,157.6
2023-04-26T00:52:03,42.805,6.029,0.001,-0.074,-0.041,103.0,103.0,103.0,13.4,1505.2,334.4,-0.7,1.8,2471.394,13.29,0.074,179.2
2023-04-26T00:55:03,42.805,6.029,0.017,-0.045,-0.002,104.0,105.0,102.0,13.4,1505.2,328.0,-0.8,1.8,2471.429,13.29,0.048,159.3
2023-04-26T00:58:03,42.805,6.029,0.012,-0.047,-0.022,104.0,104.0,103.0,13.4,1505.2,333.4,-0.7,1.8,2471.415,13.29,0.048,165.7
2023-04-26T01:04:03,42.805,6.029,-0.008,-0.049,-0.019,106.0,106.0,106.0,13.4,1505.2,330.6,-0.8,1.8,2471.472,13.28,0.049,189.3
2023-04-26T01:07:03,42.805,6.029,-0.023,-0.091,-0.003,106.0,104.0,104.0,13.4,1505.2,344.3,-0.8,1.8,2471.464,13.28,0.093,194.2
2023-04-26T01:10:03,42.805,6.029,0.023,-0.054,-0.028,105.0,105.0,102.0,13.3,1505.2,331.8,-0.7,1.8,2471.438,13.28,0.058,156.9
2023-04-26T01:13:03,42.805,6.029,0.003,-0.089,-0.059,105.0,102.0,104.0,13.3,1505.2,339.5,-0.7,1.8,2471.415,13.29,0.089,178.1
2023-04-26T01:16:03,42.805,6.029,0.009,-0.075,-0.03,105.0,104.0,104.0,13.4,1505.2,336.5,-0.7,1.8,2471.425,13.29,0.075,173.2
2023-04-26T01:19:03,42.805,6.029,0.013,-0.079,-0.049,104.0,105.0,103.0,13.4,1505.2,322.3,-0.8,1.8,2471.454,13.29,0.08,170.7
2023-04-26T01:22:03,42.805,6.029,0.028,-0.055,-0.044,106.0,104.0,103.0,13.4,1505.2,324.1,-0.8,1.8,2471.398,13.29,0.061,153.0
2023-04-26T01:25:03,42.805,6.029,0.023,-0.066,-0.04,106.0,104.0,103.0,13.4,1505.2,327.2,-0.8,1.8,2471.375,13.29,0.069,160.8
2023-04-26T01:28:03,42.805,6.029,-0.002,-0.052,-0.042,105.0,104.0,103.0,13.3,1505.2,322.1,-0.8,1.8,2471.437,13.29,0.052,182.2
2023-04-26T01:31:03,42.805,6.029,0.009,-0.075,-0.026,106.0,104.0,102.0,13.4,1505.2,327.2,-0.8,1.8,2471.385,13.29,0.075,173.2
2023-04-26T01:34:03,42.805,6.029,0.0,-0.067,-0.018,105.0,104.0,102.0,13.4,1505.2,327.0,-0.8,1.8,2471.414,13.29,0.066,180.0
2023-04-26T01:37:03,42.805,6.029,0.015,-0.08,-0.033,105.0,105.0,101.0,13.3,1505.2,322.3,-0.7,1.8,2471.429,13.29,0.081,169.4
2023-04-26T01:40:03,42.805,6.029,0.012,-0.092,-0.038,105.0,104.0,102.0,13.3,1505.2,318.8,-0.7,1.8,2471.379,13.29,0.092,172.6
2023-04-26T01:43:03,42.805,6.029,0.017,-0.089,-0.017,105.0,104.0,104.0,13.4,1505.2,321.7,-0.8,1.8,2471.408,13.29,0.09,169.2
2023-04-26T01:46:03,42.805,6.029,-0.003,-0.073,-0.021,104.0,104.0,103.0,13.4,1505.2,339.4,-0.8,1.8,2471.453,13.29,0.073,182.4
2023-04-26T01:49:03,42.805,6.029,0.017,-0.063,-0.025,104.0,104.0,103.0,13.3,1505.2,321.1,-0.7,1.8,2471.419,13.29,0.065,164.9
2023-04-26T01:52:03,42.805,6.029,0.006,-0.053,-0.035,105.0,103.0,103.0,13.3,1505.2,336.1,-0.7,1.8,2471.399,13.29,0.053,173.5
2023-04-26T01:55:03,42.805,6.029,0.022,-0.066,-0.02,106.0,105.0,103.0,13.4,1505.2,340.2,-0.7,1.8,2471.366,13.29,0.069,161.6
2023-04-26T01:58:03,42.805,6.029,0.014,-0.071,-0.052,105.0,105.0,103.0,13.3,1505.2,336.8,-0.7,1.8,2471.425,13.29,0.072,168.8
2023-04-26T02:04:03,42.805,6.029,0.009,-0.046,-0.043,103.0,104.0,104.0,13.4,1505.2,319.3,-0.8,1.8,2471.476,13.28,0.046,168.9
2023-04-26T02:07:03,42.805,6.029,0.015,-0.064,-0.043,104.0,105.0,103.0,13.4,1505.2,325.2,-0.8,1.8,2471.457,13.28,0.065,166.8
2023-04-26T02:10:03,42.805,6.029,0.036,-0.065,-0.046,105.0,105.0,103.0,13.3,1505.2,329.8,-0.8,1.8,2471.398,13.28,0.074,151.0
2023-04-26T02:13:03,42.805,6.029,0.003,-0.07,-0.046,106.0,103.0,103.0,13.4,1505.2,326.3,-0.8,1.8,2471.379,13.29,0.07,177.6
2023-04-26T02:16:03,42.805,6.029,0.003,-0.077,-0.044,105.0,104.0,103.0,13.4,1505.2,327.1,-0.8,1.8,2471.42,13.29,0.077,177.8
2023-04-26T02:19:03,42.805,6.029,0.013,-0.053,-0.037,104.0,104.0,103.0,13.3,1505.2,323.1,-0.7,1.8,2471.421,13.29,0.054,166.2
2023-04-26T02:22:03,42.805,6.029,0.019,-0.068,-0.064,105.0,105.0,102.0,13.3,1505.2,322.6,-0.7,1.8,2471.392,13.29,0.07,164.4
2023-04-26T02:25:03,42.805,6.029,-0.001,-0.098,-0.041,106.0,102.0,104.0,13.4,1505.2,336.3,-0.8,1.8,2471.355,13.29,0.098,180.6
2023-04-26T02:28:03,42.805,6.029,-0.028,-0.046,-0.032,105.0,103.0,104.0,13.4,1505.2,335.5,-0.7,1.8,2471.4,13.29,0.053,211.3
2023-04-26T02:31:03,42.805,6.029,0.018,-0.072,-0.048,104.0,104.0,103.0,13.3,1505.2,325.7,-0.7,1.8,2471.388,13.29,0.074,166.0
2023-04-26T02:34:03,42.805,6.029,0.009,-0.074,-0.047,105.0,104.0,103.0,13.4,1505.2,323.4,-0.8,1.8,2471.324,13.29,0.074,173.1
2023-04-26T02:37:03,42.805,6.029,0.002,-0.068,-0.057,106.0,104.0,103.0,13.4,1505.2,326.6,-0.8,1.8,2471.365,13.29,0.068,178.3
2023-04-26T02:40:03,42.805,6.029,0.018,-0.057,-0.015,105.0,106.0,102.0,13.4,1505.2,328.1,-0.7,1.8,2471.39,13.29,0.059,162.5
2023-04-26T02:43:03,42.805,6.029,0.045,-0.07,-0.044,105.0,105.0,103.0,13.3,1505.2,322.2,-0.7,1.8,2471.382,13.29,0.083,147.3
2023-04-26T02:46:03,42.805,6.029,0.006,-0.079,-0.045,105.0,104.0,103.0,13.4,1505.2,322.9,-0.8,1.8,2471.374,13.29,0.079,175.7
2023-04-26T02:49:03,42.805,6.029,-0.008,-0.051,-0.035,106.0,105.0,102.0,13.4,1505.2,341.9,-0.8,1.8,2471.382,13.29,0.051,188.9
2023-04-26T02:52:03,42.805,6.029,0.004,-0.068,-0.04,105.0,104.0,102.0,13.4,1505.2,319.7,-0.8,1.8,2471.39,13.29,0.068,176.6
2023-04-26T02:55:03,42.805,6.029,0.012,-0.059,-0.063,104.0,105.0,103.0,13.4,1505.2,319.1,-0.8,1.8,2471.39,13.29,0.06,168.5
2023-04-26T02:58:03,42.805,6.029,0.005,-0.068,-0.043,106.0,104.0,103.0,13.4,1505.2,333.4,-0.8,1.8,2471.36,13.29,0.068,175.8
2023-04-26T03:04:03,42.805,6.029,-0.004,-0.055,-0.063,105.0,104.0,104.0,13.4,1505.2,329.0,-0.7,1.9,2471.394,13.28,0.055,184.2
2023-04-26T03:07:03,42.805,6.029,0.011,-0.048,-0.003,106.0,104.0,104.0,13.4,1505.2,325.2,-0.7,1.8,2471.389,13.28,0.049,167.1
2023-04-26T03:10:03,42.805,6.029,0.003,-0.073,-0.021,105.0,103.0,102.0,13.4,1505.2,317.3,-0.8,1.8,2471.387,13.28,0.073,177.6
2023-04-26T03:13:03,42.805,6.029,0.014,-0.048,-0.038,105.0,105.0,103.0,13.4,1505.2,334.4,-0.7,1.9,2471.377,13.29,0.05,163.7
2023-04-26T03:16:03,42.805,6.029,0.018,-0.073,-0.021,105.0,104.0,104.0,13.3,1505.2,334.9,-0.7,1.8,2471.412,13.29,0.075,166.2
2023-04-26T03:19:03,42.805,6.029,0.004,-0.057,-0.006,105.0,104.0,104.0,13.4,1505.2,328.8,-0.8,1.8,2471.386,13.29,0.057,176.0
2023-04-26T03:22:03,42.805,6.029,0.015,-0.043,-0.03,106.0,104.0,104.0,13.3,1505.2,329.8,-0.8,1.9,2471.339,13.29,0.045,160.8
2023-04-26T03:25:03,42.805,6.029,-0.002,-0.091,-0.09,104.0,105.0,102.0,13.4,1505.2,331.1,-0.7,1.8,2471.37,13.29,0.091,181.3
2023-04-26T03:28:03,42.805,6.029,0.025,-0.07,-0.013,105.0,105.0,102.0,13.4,1505.2,330.7,-0.8,1.9,2471.354,13.29,0.074,160.4
2023-04-26T03:31:03,42.805,6.029,-0.007,-0.051,-0.031,104.0,104.0,102.0,13.4,1505.2,344.2,-0.8,1.8,2471.388,13.29,0.051,187.8
2023-04-26T03:34:03,42.805,6.029,-0.001,-0.069,-0.011,105.0,104.0,104.0,13.4,1505.2,332.9,-0.8,1.8,2471.387,13.29,0.069,180.8
2023-04-26T03:37:03,42.805,6.029,-0.005,-0.077,-0.039,106.0,104.0,103.0,13.3,1505.2,329.8,-0.8,1.8,2471.393,13.29,0.077,183.7
2023-04-26T03:40:03,42.805,6.029,0.004,-0.07,-0.028,105.0,105.0,103.0,13.4,1505.2,334.4,-0.8,1.8,2471.355,13.29,0.07,176.7
2023-04-26T03:43:03,42.805,6.029,-0.04,-0.049,-0.045,105.0,104.0,103.0,13.4,1505.2,341.5,-0.8,1.8,2471.346,13.29,0.063,219.2
2023-04-26T03:46:03,42.805,6.029,-0.003,-0.071,-0.052,105.0,104.0,104.0,13.4,1505.2,342.3,-0.8,1.8,2471.353,13.29,0.071,182.4
2023-04-26T03:49:03,42.805,6.029,-0.013,-0.074,-0.021,104.0,105.0,103.0,13.3,1505.2,339.3,-0.8,1.8,2471.355,13.29,0.075,190.0
2023-04-26T03:52:03,42.805,6.029,0.014,-0.073,-0.053,105.0,105.0,102.0,13.4,1505.2,331.3,-0.8,1.8,2471.358,13.29,0.074,169.1
2023-04-26T03:55:03,42.805,6.029,0.0,-0.058,-0.046,103.0,105.0,103.0,13.4,1505.2,331.9,-0.7,1.8,2471.359,13.29,0.057,180.0
2023-04-26T03:58:03,42.805,6.029,0.027,-0.073,-0.043,105.0,104.0,103.0,13.4,1505.2,323.4,-0.7,1.8,2471.381,13.29,0.077,159.7
2023-04-26T04:04:03,42.805,6.029,0.024,-0.042,-0.021,105.0,104.0,104.0,13.4,1505.2,315.5,-0.8,1.8,2471.396,13.28,0.048,150.3
2023-04-26T04:07:03,42.805,6.029,-0.021,-0.071,-0.065,105.0,103.0,102.0,13.4,1505.2,332.4,-0.8,1.8,2471.41,13.28,0.074,196.5
2023-04-26T04:10:03,42.805,6.029,0.032,-0.058,-0.022,105.0,105.0,104.0,13.3,1505.2,326.8,-0.8,1.8,2471.381,13.29,0.066,151.1
2023-04-26T04:13:03,42.805,6.029,0.0,-0.059,-0.023,107.0,104.0,102.0,13.4,1505.2,336.2,-0.8,1.8,2471.382,13.29,0.058,180.0
2023-04-26T04:16:03,42.805,6.029,0.02,-0.075,-0.056,105.0,105.0,103.0,13.3,1505.2,324.4,-0.8,1.8,2471.379,13.29,0.077,165.1
2023-04-26T04:19:03,42.805,6.029,-0.017,-0.062,-0.052,105.0,104.0,102.0,13.4,1505.2,338.5,-0.7,1.8,2471.364,13.29,0.064,195.3
2023-04-26T04:22:03,42.805,6.029,0.006,-0.054,-0.01,104.0,105.0,102.0,13.4,1505.2,331.6,-0.8,1.9,2471.38,13.29,0.054,173.7
2023-04-26T04:25:03,42.805,6.029,-0.009,-0.057,-0.046,105.0,105.0,102.0,13.3,1505.2,341.5,-0.8,1.8,2471.362,13.29,0.057,189.0
2023-04-26T04:28:03,42.805,6.029,0.004,-0.052,-0.043,105.0,104.0,103.0,13.4,1505.2,335.8,-0.7,1.8,2471.372,13.29,0.052,175.6
2023-04-26T04:31:03,42.805,6.029,0.011,-0.056,-0.055,104.0,105.0,103.0,13.4,1505.2,322.9,-0.7,1.8,2471.362,13.29,0.057,168.9
2023-04-26T04:34:03,42.805,6.029,-0.011,-0.038,-0.029,106.0,104.0,103.0,13.3,1505.2,329.1,-0.8,1.8,2471.343,13.29,0.039,196.1
2023-04-26T04:37:03,42.805,6.029,-0.002,-0.072,-0.046,105.0,105.0,103.0,13.4,1505.2,338.2,-0.7,1.8,2471.304,13.29,0.072,181.6
2023-04-26T04:40:03,42.805,6.029,0.027,-0.067,-0.044,105.0,103.0,104.0,13.3,1505.2,325.7,-0.7,1.8,2471.373,13.29,0.072,158.1
2023-04-26T04:43:03,42.805,6.029,-0.015,-0.071,-0.01,105.0,104.0,103.0,13.3,1505.2,341.5,-0.7,1.8,2471.372,13.29,0.072,191.9
2023-04-26T04:46:03,42.805,6.029,0.033,-0.055,-0.034,105.0,104.0,103.0,13.4,1505.2,315.6,-0.8,1.8,2471.344,13.29,0.064,149.0
2023-04-26T04:49:03,42.805,6.029,0.0,-0.054,-0.038,106.0,105.0,104.0,13.4,1505.2,335.4,-0.8,1.8,2471.324,13.29,0.053,180.0
2023-04-26T04:52:03,42.805,6.029,-0.015,-0.066,-0.064,106.0,104.0,104.0,13.3,1505.2,334.4,-0.8,1.8,2471.334,13.29,0.067,192.8
2023-04-26T04:55:03,42.805,6.029,0.02,-0.068,-0.039,105.0,104.0,103.0,13.3,1505.2,325.4,-0.8,1.8,2471.362,13.29,0.07,163.6
2023-04-26T04:58:03,42.805,6.029,-0.002,-0.075,-0.02,105.0,105.0,103.0,13.3,1505.2,345.7,-0.8,1.8,2471.355,13.29,0.075,181.5
2023-04-26T05:04:03,42.805,6.029,0.0,-0.064,-0.027,105.0,104.0,103.0,13.4,1505.2,334.9,-0.7,1.8,2471.437,13.28,0.063,180.0
2023-04-26T05:07:03,42.805,6.029,0.002,-0.068,-0.042,104.0,103.0,103.0,13.4,1505.2,323.2,-0.8,1.8,2471.38,13.28,0.068,178.3
2023-04-26T05:10:03,42.805,6.029,0.0,-0.088,-0.05,105.0,103.0,104.0,13.3,1505.2,323.4,-0.7,1.8,2471.386,13.29,0.087,180.0
2023-04-26T05:13:03,42.805,6.029,-0.006,-0.054,-0.068,106.0,104.0,103.0,13.3,1505.2,339.3,-0.8,1.8,2471.394,13.29,0.054,186.3
2023-04-26T05:16:03,42.805,6.029,0.002,-0.055,-0.043,105.0,104.0,104.0,13.3,1505.2,319.7,-0.7,1.8,2471.349,13.29,0.055,177.9
2023-04-26T05:19:03,42.805,6.029,-0.017,-0.06,-0.037,105.0,105.0,102.0,13.4,1505.2,342.3,-0.7,1.8,2471.374,13.29,0.062,195.8
2023-04-26T05:22:03,42.805,6.029,-0.01,-0.061,-0.035,105.0,104.0,102.0,13.4,1505.2,325.4,-0.7,1.8,2471.376,13.29,0.061,189.3
2023-04-26T05:25:03,42.805,6.029,-0.007,-0.03,-0.025,105.0,104.0,103.0,13.4,1505.2,342.3,-0.8,1.8,2471.354,13.29,0.03,193.1
2023-04-26T05:28:03,42.805,6.029,-0.015,-0.065,-0.017,104.0,105.0,103.0,13.4,1505.2,333.9,-0.7,1.8,2471.388,13.29,0.066,193.0
2023-04-26T05:31:03,42.805,6.029,-0.003,-0.067,0.0,106.0,104.0,103.0,13.4,1505.2,328.2,-0.8,1.8,2471.347,13.29,0.067,182.6
2023-04-26T05:34:03,42.805,6.029,-0.016,-0.054,-0.026,105.0,105.0,103.0,13.3,1505.2,328.7,-0.8,1.8,2471.342,13.29,0.056,196.5
2023-04-26T05:37:03,42.805,6.029,-0.005,-0.05,-0.05,104.0,104.0,103.0,13.4,1505.2,339.6,-0.7,1.8,2471.348,13.29,0.05,185.7
2023-04-26T05:40:03,42.805,6.029,0.011,-0.079,-0.047,105.0,103.0,103.0,13.3,1505.2,322.9,-0.8,1.8,2471.334,13.29,0.079,172.1
2023-04-26T05:43:03,42.805,6.029,-0.01,-0.058,-0.037,105.0,104.0,103.0,13.4,1505.2,323.6,-0.8,1.8,2471.321,13.29,0.058,189.8
2023-04-26T05:46:03,42.805,6.029,0.007,-0.071,-0.071,105.0,106.0,103.0,13.4,1505.2,324.4,-0.8,1.8,2471.348,13.29,0.071,174.4
2023-04-26T05:49:03,42.805,6.029,-0.011,-0.077,-0.037,104.0,104.0,103.0,13.4,1505.2,342.9,-0.8,1.8,2471.334,13.29,0.077,188.1
2023-04-26T05:52:03,42.805,6.029,-0.003,-0.057,-0.038,105.0,104.0,103.0,13.4,1505.2,322.6,-0.7,1.8,2471.349,13.29,0.057,183.0
2023-04-26T05:55:03,42.805,6.029,-0.011,-0.057,-0.006,105.0,103.0,104.0,13.4,1505.2,342.6,-0.8,1.8,2471.32,13.29,0.058,190.9
2023-04-26T05:58:03,42.805,6.029,-0.017,-0.064,-0.055,105.0,105.0,103.0,13.4,1505.2,337.7,-0.8,1.8,2471.342,13.29,0.066,194.9
2023-04-26T06:04:03,42.805,6.029,0.002,-0.078,-0.047,105.0,105.0,103.0,13.3,1505.2,323.6,-0.8,1.8,2471.347,13.28,0.078,178.5
2023-04-26T06:07:03,42.805,6.029,-0.005,-0.058,-0.027,104.0,104.0,103.0,13.3,1505.2,320.8,-0.7,1.8,2471.373,13.28,0.058,184.9
2023-04-26T06:10:03,42.805,6.029,-0.008,-0.048,-0.015,104.0,104.0,103.0,13.4,1505.2,332.1,-0.8,1.8,2471.352,13.29,0.048,189.5
2023-04-26T06:13:03,42.805,6.029,-0.033,-0.064,-0.03,106.0,104.0,103.0,13.4,1505.2,343.6,-0.8,1.8,2471.344,13.29,0.072,207.3
2023-04-26T06:16:03,42.805,6.029,-0.016,-0.051,-0.031,106.0,105.0,103.0,13.4,1505.2,322.5,-0.8,1.8,2471.363,13.29,0.053,197.4
2023-04-26T06:19:03,42.805,6.029,0.002,-0.071,-0.069,104.0,104.0,103.0,13.4,1505.2,324.1,-0.8,1.8,2471.354,13.29,0.071,178.4
2023-04-26T06:22:03,42.805,6.029,-0.014,-0.064,-0.019,105.0,104.0,103.0,13.3,1505.2,334.6,-0.8,1.8,2471.348,13.29,0.065,192.3
2023-04-26T06:25:03,42.805,6.029,0.0,-0.067,-0.017,105.0,104.0,103.0,13.3,1505.2,334.3,-0.8,1.8,2471.37,13.29,0.066,180.0
2023-04-26T06:28:03,42.805,6.029,-0.013,-0.061,-0.026,105.0,104.0,103.0,13.4,1505.2,339.4,-0.7,1.8,2471.325,13.29,0.062,192.0
2023-04-26T06:31:03,42.805,6.029,-0.019,-0.03,-0.032,106.0,103.0,104.0,13.4,1505.2,330.6,-0.8,1.8,2471.364,13.29,0.035,212.3
2023-04-26T06:34:03,42.805,6.029,-0.013,-0.054,-0.029,105.0,103.0,103.0,13.3,1505.2,327.0,-0.7,1.8,2471.311,13.29,0.055,193.5
2023-04-26T06:37:03,42.805,6.029,-0.019,-0.049,-0.051,104.0,104.0,103.0,13.3,1505.2,325.5,-0.8,1.8,2471.338,13.29,0.052,201.2
2023-04-26T06:40:03,42.805,6.029,-0.019,-0.032,-0.038,105.0,104.0,102.0,13.3,1505.2,332.9,-0.8,1.8,2471.336,13.29,0.037,210.7
2023-04-26T06:43:03,42.805,6.029,-0.032,-0.051,-0.038,105.0,102.0,105.0,13.4,1505.2,334.2,-0.8,1.8,2471.315,13.29,0.06,212.1
2023-04-26T06:46:03,42.805,6.029,0.016,-0.054,0.004,105.0,104.0,103.0,13.4,1505.2,321.6,-0.8,1.9,2471.315,13.29,0.056,163.5
2023-04-26T06:49:03,42.805,6.029,-0.036,-0.067,-0.026,104.0,105.0,103.0,13.4,1505.2,324.5,-0.8,1.8,2471.367,13.29,0.076,208.3
2023-04-26T06:52:03,42.805,6.029,-0.014,-0.063,-0.031,105.0,104.0,103.0,13.4,1505.2,323.9,-0.7,1.8,2471.328,13.29,0.064,192.5
2023-04-26T06:55:03,42.805,6.029,-0.008,-0.065,-0.016,103.0,105.0,102.0,13.4,1505.2,328.2,-0.7,1.8,2471.306,13.29,0.065,187.0
2023-04-26T06:58:03,42.805,6.029,0.006,-0.052,-0.021,104.0,104.0,102.0,13.3,1505.2,323.3,-0.8,1.8,2471.324,13.29,0.052,173.4
2023-04-26T07:04:03,42.805,6.029,-0.01,-0.062,-0.035,105.0,104.0,103.0,13.4,1505.2,318.2,-0.8,1.8,2471.354,13.28,0.062,189.2
2023-04-26T07:07:03,42.805,6.029,-0.008,-0.05,-0.055,104.0,105.0,102.0,13.4,1505.2,322.1,-0.8,1.8,2471.359,13.28,0.05,189.1
2023-04-26T07:10:03,42.805,6.029,-0.003,-0.029,-0.038,104.0,104.0,102.0,13.3,1505.2,329.8,-0.8,1.9,2471.332,13.29,0.029,185.9
2023-04-26T07:13:03,42.805,6.029,0.007,-0.048,-0.043,105.0,104.0,103.0,13.4,1505.2,324.9,-0.8,1.8,2471.362,13.29,0.048,171.7
2023-04-26T07:16:03,42.805,6.029,-0.015,-0.061,-0.039,106.0,104.0,103.0,13.4,1505.2,338.2,-0.8,1.8,2471.418,13.29,0.062,193.8
2023-04-26T07:19:03,42.805,6.029,0.002,-0.058,-0.039,105.0,103.0,103.0,13.4,1505.2,326.3,-0.7,1.8,2471.313,13.29,0.058,178.0
2023-04-26T07:22:03,42.805,6.029,0.002,-0.05,-0.048,105.0,104.0,103.0,13.3,1505.2,321.6,-0.8,1.8,2471.308,13.29,0.05,177.7
2023-04-26T07:25:03,42.805,6.029,-0.016,-0.026,-0.02,105.0,104.0,104.0,13.3,1505.2,326.6,-0.8,1.8,2471.313,13.29,0.03,211.6
2023-04-26T07:28:03,42.805,6.029,0.021,-0.056,-0.019,105.0,104.0,104.0,13.4,1505.2,321.4,-0.8,1.8,2471.322,13.29,0.059,159.4
2023-04-26T07:31:03,42.805,6.029,-0.009,-0.054,-0.048,106.0,103.0,104.0,13.4,1505.2,322.5,-0.7,1.8,2471.338,13.29,0.054,189.5
2023-04-26T07:34:03,42.805,6.029,-0.005,-0.052,-0.042,105.0,104.0,102.0,13.3,1505.2,327.7,-0.8,1.8,2471.3,13.29,0.052,185.5
2023-04-26T07:37:03,42.805,6.029,-0.006,-0.061,-0.023,104.0,104.0,103.0,13.4,1505.2,332.4,-0.8,1.8,2471.303,13.29,0.061,185.6
2023-04-26T07:40:03,42.805,6.029,-0.001,-0.073,-0.01,105.0,104.0,103.0,13.4,1505.2,319.0,-0.8,1.8,2471.348,13.29,0.073,180.8
2023-04-26T07:43:03,42.805,6.029,-0.016,-0.064,-0.025,105.0,105.0,103.0,13.3,1505.2,331.0,-0.8,1.8,2471.31,13.29,0.065,194.0
2023-04-26T07:46:03,42.805,6.029,-0.005,-0.064,-0.074,105.0,104.0,103.0,13.4,1505.2,325.7,-0.8,1.8,2471.326,13.29,0.064,184.5
2023-04-26T07:49:03,42.805,6.029,-0.01,-0.056,-0.005,106.0,105.0,103.0,13.4,1505.2,332.0,-0.8,1.8,2471.31,13.29,0.056,190.1
2023-04-26T07:52:03,42.805,6.029,0.005,-0.052,-0.031,105.0,104.0,103.0,13.3,1505.2,320.9,-0.8,1.8,2471.297,13.29,0.052,174.5
2023-04-26T07:55:03,42.805,6.029,-0.004,-0.044,-0.043,105.0,104.0,103.0,13.4,1505.2,331.1,-0.8,1.8,2471.316,13.29,0.044,185.2
2023-04-26T07:58:03,42.805,6.029,0.0,-0.075,-0.025,104.0,105.0,103.0,13.3,1505.2,326.6,-0.7,1.8,2471.324,13.29,0.074,180.0
2023-04-26T08:04:03,42.805,6.029,-0.014,-0.059,0.009,105.0,104.0,104.0,13.4,1505.2,327.5,-0.8,1.8,2471.399,13.28,0.06,193.3
2023-04-26T08:07:03,42.805,6.029,0.017,-0.055,-0.034,105.0,104.0,103.0,13.3,1505.2,317.0,-0.8,1.8,2471.385,13.28,0.057,162.8
2023-04-26T08:10:03,42.805,6.029,-0.003,-0.06,-0.047,104.0,105.0,103.0,13.4,1505.2,323.8,-0.8,1.8,2471.373,13.29,0.06,182.9
2023-04-26T08:13:03,42.805,6.029,0.013,-0.044,-0.011,106.0,105.0,104.0,13.4,1505.2,324.2,-0.8,1.8,2471.327,13.29,0.045,163.5
2023-04-26T08:16:03,42.805,6.029,0.029,-0.047,-0.005,104.0,104.0,103.0,13.3,1505.2,318.9,-0.8,1.8,2471.362,13.29,0.055,148.3
2023-04-26T08:19:03,42.805,6.029,-0.009,-0.055,-0.037,105.0,104.0,102.0,13.4,1505.2,323.8,-0.8,1.8,2471.349,13.29,0.055,189.3
2023-04-26T08:22:03,42.805,6.029,-0.002,-0.053,-0.023,105.0,105.0,104.0,13.4,1505.2,330.9,-0.8,1.8,2471.36,13.29,0.053,182.2
2023-04-26T08:25:03,42.805,6.029,-0.002,-0.055,-0.014,104.0,105.0,103.0,13.4,1505.2,332.9,-0.7,1.8,2471.328,13.29,0.055,182.1
2023-04-26T08:28:03,42.805,6.029,-0.01,-0.05,-0.026,105.0,104.0,104.0,13.4,1505.2,329.6,-0.8,1.8,2471.334,13.29,0.05,191.3
2023-04-26T08:31:03,42.805,6.029,0.009,-0.053,-0.03,105.0,105.0,104.0,13.4,1505.2,328.8,-0.8,1.8,2471.328,13.29,0.053,170.4
2023-04-26T08:34:03,42.805,6.029,-0.027,-0.058,-0.045,106.0,104.0,103.0,13.4,1505.2,343.9,-0.7,1.8,2471.359,13.29,0.063,205.0
2023-04-26T08:37:03,42.805,6.029,-0.002,-0.029,-0.025,106.0,105.0,103.0,13.3,1505.2,332.4,-0.7,1.8,2471.352,13.29,0.029,183.9
2023-04-26T08:40:03,42.805,6.029,-0.012,-0.043,-0.058,105.0,104.0,103.0,13.4,1505.2,330.8,-0.8,1.8,2471.349,13.29,0.044,195.6
2023-04-26T08:43:03,42.805,6.029,0.003,-0.048,-0.021,106.0,104.0,104.0,13.3,1505.2,333.9,-0.8,1.8,2471.336,13.29,0.048,176.4
2023-04-26T08:46:03,42.805,6.029,-0.013,-0.057,-0.049,105.0,104.0,103.0,13.4,1505.2,336.6,-0.8,1.8,2471.364,13.29,0.058,192.8
2023-04-26T08:49:03,42.805,6.029,-0.009,-0.042,-0.042,104.0,104.0,103.0,13.4,1505.2,321.0,-0.8,1.9,2471.331,13.29,0.042,192.1
2023-04-26T08:52:03,42.805,6.029,-0.002,-0.062,-0.026,105.0,104.0,102.0,13.4,1505.2,318.6,-0.8,1.8,2471.386,13.29,0.062,181.8
2023-04-26T08:55:03,42.805,6.029,-0.041,-0.05,-0.033,107.0,104.0,103.0,13.3,1505.2,344.6,-0.7,1.8,2471.34,13.29,0.064,219.3
2023-04-26T08:58:03,42.805,6.029,0.019,-0.051,-0.003,105.0,104.0,104.0,13.4,1505.2,322.3,-0.8,1.8,2471.369,13.29,0.054,159.6
2023-04-26T09:04:03,42.805,6.029,0.002,-0.058,-0.049,105.0,104.0,103.0,13.4,1505.2,324.0,-0.8,1.8,2471.399,13.28,0.058,178.0
2023-04-26T09:07:03,42.805,6.029,0.003,-0.054,-0.058,104.0,105.0,104.0,13.3,1505.2,330.9,-0.8,1.8,2471.38,13.28,0.054,176.8
2023-04-26T09:10:03,42.805,6.029,0.022,-0.055,-0.011,107.0,104.0,103.0,13.4,1505.2,323.1,-0.7,1.8,2471.365,13.29,0.059,158.2
2023-04-26T09:13:03,42.805,6.029,-0.016,-0.053,-0.058,106.0,105.0,102.0,13.4,1505.2,321.8,-0.8,1.9,2471.364,13.29,0.055,196.8
2023-04-26T09:16:03,42.805,6.029,-0.006,-0.043,-0.005,105.0,104.0,105.0,13.3,1505.2,336.3,-0.8,1.8,2471.372,13.29,0.043,187.9
2023-04-26T09:19:03,42.805,6.029,-0.01,-0.073,-0.058,104.0,105.0,102.0,13.4,1505.2,341.9,-0.8,1.8,2471.363,13.29,0.073,187.8
2023-04-26T09:22:03,42.805,6.029,-0.039,-0.046,-0.041,104.0,104.0,104.0,13.3,1505.2,339.3,-0.8,1.8,2471.371,13.29,0.06,220.3
2023-04-26T09:25:03,42.805,6.029,-0.004,-0.065,-0.006,105.0,103.0,103.0,13.4,1505.2,337.4,-0.8,1.8,2471.344,13.29,0.065,183.5
2023-04-26T09:28:03,42.805,6.029,-0.015,-0.062,-0.041,105.0,104.0,103.0,13.3,1505.2,319.8,-0.8,1.9,2471.334,13.29,0.063,193.6
2023-04-26T09:31:03,42.805,6.029,-0.011,-0.045,-0.03,106.0,104.0,102.0,13.3,1505.2,335.6,-0.8,1.8,2471.36,13.29,0.046,193.7
2023-04-26T09:34:03,42.805,6.029,-0.01,-0.045,-0.041,104.0,105.0,102.0,13.3,1505.2,332.4,-0.8,1.8,2471.336,13.29,0.046,192.5
2023-04-26T09:37:03,42.805,6.029,0.002,-0.069,-0.067,106.0,104.0,103.0,13.4,1505.2,330.9,-0.8,1.8,2471.4,13.29,0.069,178.3
2023-04-26T09:40:03,42.805,6.029,-0.006,-0.039,-0.044,105.0,104.0,103.0,13.4,1505.2,320.5,-0.7,1.8,2471.35,13.29,0.039,188.7
2023-04-26T09:43:03,42.805,6.029,0.016,-0.047,0.001,105.0,104.0,104.0,13.3,1505.2,323.4,-0.8,1.8,2471.336,13.29,0.049,161.2
2023-04-26T09:46:03,42.805,6.029,-0.02,-0.039,-0.06,106.0,105.0,104.0,13.4,1505.2,340.4,-0.8,1.9,2471.321,13.29,0.043,207.1
2023-04-26T09:49:03,42.805,6.029,-0.001,-0.049,-0.037,104.0,104.0,103.0,13.4,1505.2,340.1,-0.8,1.8,2471.338,13.29,0.049,181.2
2023-04-26T09:52:03,42.805,6.029,-0.019,-0.065,-0.063,105.0,104.0,103.0,13.4,1505.2,343.2,-0.8,1.8,2471.303,13.29,0.067,196.3